Epoch 2008 Oct. 21.0 TT = JDT 2454760.5 T 2008 Oct. 10.97675 TT MPC q 2.1598786 (2000.0) P Q n 0.12868021 Peri. 151.59703 -0.87874631 -0.47728906 a 3.8856309 Node 359.89315 +0.40279446 -0.74126337 e 0.4441370 Incl. 9.03508 +0.25604991 -0.47193620 P 7.66
m1 = 2.0 + 5 logΔ + 45 log r